Weather History for KPVB - April, 2014

Change the Weather History Date:

Thursday, April 3, 2014

  Actual Average (KDBQ) Record (KDBQ)
Temperature  
Mean Temperature 38 °F 43 °F  
Max Temperature 42 °F 53 °F 80 °F (1893)
Min Temperature 34 °F 33 °F 12 °F (1954)
Degree Days  
Heating Degree Days 27 22  
Month to date heating degree days 67  
Since 1 July heating degree days 6378  
Cooling Degree Days 0 0  
Month to date cooling degree days 0  
Year to date cooling degree days 0  
Moisture  
Dew Point 31 °F    
Average Humidity 76    
Maximum Humidity 93    
Minimum Humidity 57    
Precipitation  
Precipitation 0.00 in 0.10 in 1.27 in (1968)
Month to date precipitation 0.31  
Year to date precipitation 5.33  
Snow  
Snow 0.00 in 0.10 in - ()
Month to date snowfall 0.4  
Since 1 July snowfall 40.3  
Snow Depth -    
Sea Level Pressure  
Sea Level Pressure 29.83 in    
Wind  
Wind Speed 18 mph (ENE)    
Max Wind Speed 24 mph    
Max Gust Speed 32 mph    
Visibility 10 miles    
Events      
T = Trace of Precipitation, MM = Missing Value Source: NWS Daily Summary

Daily Weather History Graph

Daily Weather History Graph

Search for Another Location

Airport or City:

Trip Planner

Search our weather history database for the weather conditions in past years. The results will help you decide how hot, cold, wet, or windy it might be!

Date:

Astronomy

Apr. 03, 2014 Rise Set
Actual Time 6:40 AM CDT 7:30 PM CDT
Civil Twilight 6:11 AM CDT 7:58 PM CDT
Nautical Twilight 5:38 AM CDT 8:32 PM CDT
Astronomical Twilight 5:02 AM CDT 9:08 PM CDT
Moon 9:05 AM CDT (4/3) 11:54 PM CDT (4/3)
Length of Visible Light 13h 46m
Length of Day
12h 49m
Waxing Crescent, 17% of the Moon is Illuminated
Apr 3
Waxing Crescent
Apr 7
First Quarter
Apr 15
Full
Apr 22
Last Quarter
Apr 29
New

Hourly Weather History & Observations

Time (CDT) Temp. Windchill Dew Point Humidity Pressure Visibility Wind Dir Wind Speed Gust Speed Precip Events Conditions
12:15 AM 37.8 °F 29.0 °F 23.9 °F 57% 30.00 in 10.0 mi ENE 15.0 mph - N/A   Overcast
12:35 AM 37.8 °F 28.3 °F 24.4 °F 59% 30.00 in 10.0 mi ENE 17.3 mph 21.9 mph N/A   Overcast
12:55 AM 37.6 °F 28.8 °F 26.1 °F 63% 30.00 in 10.0 mi East 15.0 mph - N/A   Overcast
1:15 AM 36.9 °F 27.8 °F 27.1 °F 68% 29.99 in 10.0 mi ENE 15.0 mph - N/A   Overcast
1:35 AM 36.5 °F 27.0 °F 27.9 °F 71% 29.99 in 10.0 mi ENE 16.1 mph - N/A   Overcast
1:55 AM 36.5 °F 27.0 °F 27.3 °F 69% 29.97 in 10.0 mi ENE 16.1 mph - N/A   Overcast
2:15 AM 36.9 °F 26.5 °F 27.5 °F 69% 29.96 in 10.0 mi East 19.6 mph 26.5 mph N/A   Overcast
2:35 AM 37.0 °F 27.0 °F 27.5 °F 68% 29.96 in 10.0 mi ENE 18.4 mph 25.3 mph N/A   Overcast
2:55 AM 37.4 °F 27.5 °F 27.5 °F 67% 29.95 in 10.0 mi ENE 18.4 mph 24.2 mph N/A   Overcast
3:15 AM 37.8 °F 27.4 °F 27.5 °F 67% 29.93 in 10.0 mi ENE 20.7 mph 26.5 mph N/A   Overcast
3:35 AM 37.9 °F 28.2 °F 27.5 °F 66% 29.91 in 10.0 mi ENE 18.4 mph 24.2 mph N/A   Overcast
3:55 AM 38.5 °F 28.3 °F 27.7 °F 65% 29.90 in 10.0 mi ENE 20.7 mph 26.5 mph N/A   Overcast
4:15 AM 39.0 °F 29.3 °F 27.7 °F 64% 29.92 in 10.0 mi ENE 19.6 mph 26.5 mph N/A   Overcast
4:35 AM 39.2 °F 29.8 °F 28.2 °F 65% 29.92 in 10.0 mi ENE 18.4 mph 21.9 mph N/A   Overcast
4:55 AM 39.2 °F 29.8 °F 28.9 °F 67% 29.90 in 10.0 mi ENE 18.4 mph 24.2 mph N/A   Overcast
5:15 AM 39.4 °F 30.1 °F 28.8 °F 66% 29.88 in 10.0 mi ENE 18.4 mph 25.3 mph N/A   Overcast
5:35 AM 39.4 °F 30.1 °F 28.6 °F 65% 29.88 in 10.0 mi ENE 18.4 mph 25.3 mph N/A   Overcast
5:55 AM 39.7 °F 30.6 °F 28.6 °F 64% 29.88 in 10.0 mi ENE 18.4 mph 25.3 mph N/A   Overcast
6:15 AM 39.4 °F 30.4 °F 28.9 °F 66% 29.87 in 10.0 mi ENE 17.3 mph 24.2 mph N/A   Overcast
6:35 AM 38.5 °F 28.6 °F 30.6 °F 73% 29.86 in 7.0 mi ENE 19.6 mph 25.3 mph N/A   Overcast
6:55 AM 37.6 °F 27.4 °F 31.8 °F 80% 29.87 in 7.0 mi ENE 19.6 mph 26.5 mph N/A   Overcast
7:15 AM 36.7 °F 26.3 °F 32.0 °F 83% 29.87 in 10.0 mi ENE 19.6 mph 27.6 mph N/A   Overcast
7:35 AM 36.1 °F 25.5 °F 32.2 °F 86% 29.87 in 10.0 mi ENE 19.6 mph 26.5 mph N/A   Overcast
7:55 AM 36.1 °F 24.4 °F 32.5 °F 87% 29.87 in 10.0 mi ENE 24.2 mph 28.8 mph N/A   Overcast
8:15 AM 36.1 °F 25.2 °F 32.5 °F 87% 29.87 in 10.0 mi ENE 20.7 mph 26.5 mph N/A   Overcast
8:35 AM 36.5 °F 26.7 °F 32.2 °F 84% 29.88 in 10.0 mi ENE 17.3 mph 25.3 mph N/A   Overcast
8:55 AM 36.5 °F 27.0 °F 32.0 °F 84% 29.88 in 10.0 mi ENE 16.1 mph 23.0 mph N/A   Overcast
9:15 AM 36.5 °F 26.0 °F 31.5 °F 82% 29.87 in 10.0 mi ENE 19.6 mph 25.3 mph N/A   Overcast
9:35 AM 36.5 °F 26.3 °F 31.1 °F 81% 29.86 in 10.0 mi ENE 18.4 mph 26.5 mph N/A   Overcast
9:55 AM 36.7 °F 25.7 °F 31.1 °F 80% 29.85 in 10.0 mi ENE 21.9 mph 27.6 mph N/A   Overcast
10:15 AM 37.2 °F 26.1 °F 31.3 °F 79% 29.84 in 10.0 mi ENE 23.0 mph 28.8 mph N/A   Overcast
10:35 AM 36.9 °F 25.4 °F 31.1 °F 80% 29.83 in 10.0 mi ENE 24.2 mph 32.2 mph N/A   Overcast
10:55 AM 37.2 °F 27.0 °F 32.0 °F 81% 29.83 in 10.0 mi ENE 19.6 mph 32.2 mph N/A   Overcast
11:15 AM 37.4 °F 27.5 °F 32.0 °F 81% 29.84 in 10.0 mi ENE 18.4 mph 26.5 mph N/A   Overcast
11:35 AM 37.9 °F 27.9 °F 32.5 °F 81% 29.83 in 10.0 mi ENE 19.6 mph 27.6 mph N/A   Overcast
11:55 AM 38.3 °F 27.6 °F 32.9 °F 81% 29.82 in 10.0 mi ENE 23.0 mph 32.2 mph N/A   Overcast
12:15 PM 39.2 °F 29.3 °F 33.3 °F 79% 29.84 in 10.0 mi ENE 20.7 mph 27.6 mph N/A   Overcast
12:35 PM 39.2 °F 29.0 °F 32.9 °F 78% 29.84 in 10.0 mi ENE 21.9 mph 28.8 mph N/A   Overcast
12:55 PM 40.1 °F 30.7 °F 33.1 °F 76% 29.84 in 10.0 mi ENE 19.6 mph 25.3 mph N/A   Overcast
1:15 PM 40.5 °F 31.5 °F 33.6 °F 77% 29.83 in 10.0 mi ENE 18.4 mph 25.3 mph N/A   Overcast
1:35 PM 40.8 °F 31.1 °F 33.3 °F 74% 29.81 in 10.0 mi East 21.9 mph 27.6 mph N/A   Overcast
1:55 PM 41.7 °F 32.9 °F 33.8 °F 73% 29.80 in 10.0 mi East 19.6 mph 27.6 mph N/A   Overcast
2:15 PM 42.3 °F 32.8 °F 33.6 °F 71% 29.78 in 10.0 mi ENE 23.0 mph 27.6 mph N/A   Overcast
2:35 PM 41.9 °F 33.1 °F 33.4 °F 72% 29.78 in 10.0 mi ENE 19.6 mph 25.3 mph N/A   Overcast
2:55 PM 41.7 °F 34.1 °F 33.4 °F 72% 29.77 in 10.0 mi ENE 15.0 mph 19.6 mph N/A   Overcast
3:15 PM 41.9 °F 34.3 °F 33.8 °F 73% 29.78 in 10.0 mi East 15.0 mph 19.6 mph N/A   Overcast
3:35 PM 41.7 °F 34.4 °F 33.4 °F 72% 29.78 in 10.0 mi ENE 13.8 mph 18.4 mph N/A   Overcast
3:55 PM 41.9 °F 34.6 °F 33.6 °F 72% 29.79 in 10.0 mi East 13.8 mph - N/A   Overcast
4:15 PM 42.6 °F 35.2 °F 34.0 °F 71% 29.78 in 10.0 mi East 15.0 mph 20.7 mph N/A   Overcast
4:35 PM 42.1 °F 35.2 °F 33.8 °F 72% 29.79 in 10.0 mi East 12.7 mph 18.4 mph N/A   Overcast
4:55 PM 41.5 °F 33.8 °F 33.6 °F 73% 29.78 in 10.0 mi East 15.0 mph 19.6 mph N/A   Overcast
5:15 PM 40.5 °F 31.5 °F 33.8 °F 77% 29.77 in 10.0 mi East 18.4 mph 21.9 mph N/A   Overcast
5:35 PM 39.7 °F 31.9 °F 33.3 °F 78% 29.76 in 10.0 mi East 13.8 mph - N/A   Overcast
5:55 PM 39.6 °F 32.1 °F 33.1 °F 78% 29.76 in 10.0 mi ENE 12.7 mph 19.6 mph N/A   Overcast
6:15 PM 38.7 °F 30.9 °F 32.2 °F 78% 29.77 in 10.0 mi East 12.7 mph - N/A   Overcast
6:35 PM 38.3 °F 30.1 °F 32.0 °F 78% 29.77 in 10.0 mi East 13.8 mph - N/A   Overcast
6:55 PM 37.6 °F 27.4 °F 32.0 °F 80% 29.76 in 10.0 mi East 19.6 mph - N/A   Overcast
7:15 PM 36.7 °F 27.6 °F 32.0 °F 83% 29.74 in 10.0 mi East 15.0 mph - N/A   Overcast
7:55 PM 36.0 °F 25.0 °F 31.8 °F 85% 29.73 in 10.0 mi East 20.7 mph 25.3 mph N/A   Overcast
8:15 PM 35.6 °F 25.2 °F 31.6 °F 85% 29.72 in 10.0 mi East 18.4 mph 23.0 mph N/A   Overcast
8:35 PM 35.4 °F 24.0 °F 31.3 °F 85% 29.70 in 10.0 mi East 21.9 mph 26.5 mph N/A   Overcast
8:55 PM 35.4 °F 25.3 °F 31.1 °F 84% 29.69 in 10.0 mi ENE 17.3 mph 27.6 mph N/A   Overcast
9:15 PM 35.6 °F 25.9 °F 30.9 °F 83% 29.68 in 10.0 mi East 16.1 mph - N/A   Overcast
9:35 PM 35.6 °F 25.9 °F 30.9 °F 83% 29.67 in 10.0 mi East 16.1 mph 20.7 mph N/A   Overcast
10:55 PM 35.1 °F 26.9 °F 31.8 °F 88% 29.64 in 7.0 mi East 11.5 mph 20.7 mph N/A   Overcast
11:15 PM 34.7 °F 29.6 °F 32.0 °F 90% 29.68 in 3.0 mi NE 5.8 mph 9.2 mph N/A   Overcast
11:35 PM 34.7 °F 28.1 °F 32.5 °F 92% 29.65 in 2.5 mi ENE 8.1 mph - N/A   Overcast
11:55 PM 34.7 °F 28.1 °F 32.9 °F 93% 29.62 in 2.0 mi NE 8.1 mph - N/A   Overcast